Fredericksburg, TX

7:33 AM CDT on June 25, 2017 (GMT -0500)
Fredericksburg

Weather History for KT82 - January, 2014

Change the Weather History Date:

Tuesday, January 21, 2014

  Actual Average (KSAT) Record (KSAT)
Temperature  
Mean Temperature 44 °F -  
Max Temperature 58 °F 60 °F 83 °F (2017)
Min Temperature 29 °F 37 °F 16 °F (1985)
Degree Days  
Heating Degree Days 21    
Moisture  
Dew Point 21 °F    
Average Humidity 38    
Maximum Humidity 71    
Minimum Humidity 20    
Precipitation  
Precipitation 0.00 in - - ()
Sea Level Pressure  
Sea Level Pressure 30.31 in    
Wind  
Wind Speed 11 mph (North)    
Max Wind Speed 20 mph    
Max Gust Speed 28 mph    
Visibility 10 miles    
Events      
Averages and records for this station are not official NWS values.
T = Trace of Precipitation, MM = Missing Value Source: NWS Daily Summary

Daily Weather History Graph

Daily Weather History Graph

Search for Another Location

Airport or City:

Trip Planner

Search our weather history database for the weather conditions in past years. The results will help you decide how hot, cold, wet, or windy it might be!

Date:

Astronomy

Jan. 21, 2014 Rise Set
Actual Time 7:31 AM CST 6:02 PM CST
Civil Twilight 7:05 AM CST 6:28 PM CST
Nautical Twilight 6:36 AM CST 6:57 PM CST
Astronomical Twilight 6:07 AM CST 7:26 PM CST
Moon 11:10 PM CST (1/21) 10:26 AM CST (1/21)
Length of Visible Light 11h 22m
Length of Day
10h 31m
Waning Gibbous, 74% of the Moon is Illuminated
Jan 21
Waning Gibbous
Jan 23
Last Quarter
Jan 30
New
Feb 6
First Quarter
Feb 14
Full

Hourly Weather History & Observations

Time (CST) Temp. Windchill Dew Point Humidity Pressure Visibility Wind Dir Wind Speed Gust Speed Precip Events Conditions
12:15 AM 54.0 °F - 24.6 °F 32% 30.23 in 10.0 mi North 19.6 mph 26.5 mph N/A   Clear
12:35 AM 53.2 °F - 24.3 °F 32% 30.24 in 10.0 mi North 18.4 mph 26.5 mph N/A   Clear
12:55 AM 52.3 °F - 23.9 °F 33% 30.24 in 10.0 mi North 16.1 mph 25.3 mph N/A   Clear
1:15 AM 51.4 °F - 23.7 °F 34% 30.25 in 10.0 mi North 18.4 mph 23.0 mph N/A   Clear
1:35 AM 51.6 °F - 22.5 °F 32% 30.26 in 10.0 mi North 18.4 mph 27.6 mph N/A   Clear
1:55 AM 51.1 °F - 21.7 °F 32% 30.27 in 10.0 mi North 18.4 mph 27.6 mph N/A   Clear
2:15 AM 50.2 °F - 21.2 °F 32% 30.28 in 10.0 mi North 18.4 mph 23.0 mph N/A   Clear
2:35 AM 50.4 °F - 19.8 °F 30% 30.29 in 10.0 mi North 17.3 mph 24.2 mph N/A   Clear
2:55 AM 49.6 °F - 19.4 °F 30% 30.30 in 10.0 mi North 15.0 mph 21.9 mph N/A   Clear
3:15 AM 48.6 °F - 19.4 °F 32% 30.31 in 10.0 mi North 11.5 mph - N/A   Clear
3:35 AM 47.8 °F - 19.4 °F 32% 30.31 in 10.0 mi North 11.5 mph - N/A   Clear
3:55 AM 47.5 °F - 19.4 °F 33% 30.32 in 10.0 mi North 10.4 mph 17.3 mph N/A   Clear
4:15 AM 46.8 °F - 19.4 °F 34% 30.32 in 10.0 mi North 9.2 mph - N/A   Clear
4:35 AM 45.7 °F 41.0 °F 19.9 °F 36% 30.33 in 10.0 mi North 9.2 mph - N/A   Clear
4:55 AM 44.8 °F 39.9 °F 20.3 °F 38% 30.33 in 10.0 mi North 9.2 mph - N/A   Clear
5:15 AM 44.4 °F 39.5 °F 20.8 °F 39% 30.33 in 10.0 mi North 9.2 mph - N/A   Clear
5:35 AM 44.1 °F 38.6 °F 21.2 °F 40% 30.34 in 10.0 mi North 10.4 mph - N/A   Clear
5:55 AM 44.1 °F 38.6 °F 21.6 °F 41% 30.35 in 10.0 mi North 10.4 mph - N/A   Clear
6:15 AM 42.1 °F 37.1 °F 22.1 °F 45% 30.35 in 10.0 mi North 8.1 mph - N/A   Clear
6:35 AM 42.1 °F 37.7 °F 22.1 °F 45% 30.36 in 10.0 mi North 6.9 mph - N/A   Clear
6:55 AM 41.4 °F 36.8 °F 22.1 °F 46% 30.37 in 10.0 mi North 6.9 mph - N/A   Clear
7:15 AM 41.5 °F 35.4 °F 21.9 °F 46% 30.37 in 10.0 mi North 10.4 mph - N/A   Clear
7:35 AM 41.7 °F 35.2 °F 22.1 °F 46% 30.39 in 10.0 mi North 11.5 mph - N/A   Clear
7:55 AM 41.9 °F 35.9 °F 21.9 °F 45% 30.39 in 10.0 mi North 10.4 mph - N/A   Clear
8:15 AM 42.8 °F 36.2 °F 21.6 °F 43% 30.40 in 10.0 mi North 12.7 mph 18.4 mph N/A   Clear
8:35 AM 43.7 °F 38.1 °F 21.2 °F 41% 30.41 in 10.0 mi North 10.4 mph - N/A   Clear
8:55 AM 44.6 °F 38.4 °F 20.3 °F 38% 30.41 in 10.0 mi North 12.7 mph - N/A   Clear
9:15 AM 45.7 °F 39.1 °F 20.1 °F 36% 30.41 in 10.0 mi NNE 15.0 mph 19.6 mph N/A   Clear
9:35 AM 46.8 °F - 20.3 °F 35% 30.42 in 10.0 mi NNE 11.5 mph - N/A   Clear
9:55 AM 48.2 °F - 20.7 °F 34% 30.42 in 10.0 mi North 11.5 mph - N/A   Clear
10:15 AM 49.1 °F - 20.8 °F 33% 30.42 in 10.0 mi NNE 11.5 mph 16.1 mph N/A   Clear
10:35 AM 49.5 °F - 20.7 °F 32% 30.43 in 10.0 mi North 15.0 mph - N/A   Clear
10:55 AM 51.4 °F - 21.6 °F 31% 30.42 in 10.0 mi North 9.2 mph - N/A   Clear
11:15 AM 52.0 °F - 20.5 °F 29% 30.41 in 10.0 mi North 13.8 mph - N/A   Clear
11:35 AM 52.7 °F - 19.8 °F 27% 30.41 in 10.0 mi North 12.7 mph 21.9 mph N/A   Clear
11:55 AM 54.1 °F - 18.9 °F 25% 30.41 in 10.0 mi NNE 13.8 mph 19.6 mph N/A   Clear
12:15 PM 53.8 °F - 19.4 °F 26% 30.40 in 10.0 mi North 13.8 mph 18.4 mph N/A   Clear
12:35 PM 53.6 °F - 20.5 °F 27% 30.39 in 10.0 mi NNW 10.4 mph - N/A   Clear
12:55 PM 54.3 °F - 19.6 °F 26% 30.37 in 10.0 mi NNE 9.2 mph 16.1 mph N/A   Clear
1:15 PM 54.3 °F - 19.4 °F 26% 30.35 in 10.0 mi NNW 10.4 mph - N/A   Clear
1:35 PM 55.2 °F - 20.1 °F 25% 30.34 in 10.0 mi NW 10.4 mph 16.1 mph N/A   Clear
1:55 PM 56.5 °F - 19.6 °F 24% 30.33 in 10.0 mi NNW 10.4 mph 16.1 mph N/A   Clear
2:15 PM 56.3 °F - 20.3 °F 25% 30.32 in 10.0 mi West 4.6 mph - N/A   Clear
2:35 PM 56.3 °F - 19.4 °F 24% 30.32 in 10.0 mi NW 4.6 mph 9.2 mph N/A   Clear
2:55 PM 57.4 °F - 19.8 °F 23% 30.31 in 10.0 mi NNE 5.8 mph - N/A   Clear
3:15 PM 57.9 °F - 18.7 °F 22% 30.30 in 10.0 mi NNW 5.8 mph - N/A   Clear
3:35 PM 58.3 °F - 17.2 °F 20% 30.29 in 10.0 mi NNW 6.9 mph - N/A   Clear
3:55 PM 58.1 °F - 16.3 °F 20% 30.29 in 10.0 mi NNE 6.9 mph - N/A   Clear
4:15 PM 58.1 °F - 18.7 °F 22% 30.29 in 10.0 mi North 4.6 mph - N/A   Clear
4:35 PM 58.1 °F - 18.5 °F 21% 30.28 in 10.0 mi Calm Calm - N/A   Clear
4:55 PM 57.6 °F - 18.1 °F 22% 30.28 in 10.0 mi Calm Calm - N/A   Clear
5:15 PM 57.2 °F - 18.7 °F 22% 30.28 in 10.0 mi Calm Calm - N/A   Clear
5:35 PM 57.0 °F - 17.8 °F 22% 30.28 in 10.0 mi Calm Calm - N/A   Clear
5:55 PM 53.8 °F - 20.3 °F 27% 30.27 in 10.0 mi Calm Calm - N/A   Clear
6:15 PM 51.3 °F - 20.5 °F 30% 30.27 in 10.0 mi Calm Calm - N/A   Clear
6:35 PM 41.9 °F - 19.9 °F 42% 30.26 in 10.0 mi Calm Calm - N/A   Clear
6:55 PM 42.1 °F - 21.4 °F 44% 30.26 in 10.0 mi Calm Calm - N/A   Clear
7:15 PM 39.9 °F - 22.8 °F 50% 30.26 in 10.0 mi Calm Calm - N/A   Clear
7:35 PM 39.2 °F 37.0 °F 24.8 °F 56% 30.26 in 10.0 mi NW 3.5 mph - N/A   Clear
7:55 PM 40.3 °F 38.2 °F 24.3 °F 53% 30.26 in 10.0 mi NW 3.5 mph - N/A   Clear
8:15 PM 37.0 °F 33.3 °F 23.9 °F 59% 30.25 in 10.0 mi NNW 4.6 mph - N/A   Clear
8:35 PM 36.5 °F 32.7 °F 23.7 °F 60% 30.24 in 10.0 mi NW 4.6 mph - N/A   Clear
8:55 PM 36.1 °F 33.5 °F 23.0 °F 59% 30.24 in 10.0 mi WNW 3.5 mph - N/A   Clear
9:15 PM 34.0 °F 28.8 °F 23.0 °F 64% 30.24 in 10.0 mi NW 5.8 mph - N/A   Clear
9:35 PM 33.4 °F 29.1 °F 22.5 °F 64% 30.24 in 10.0 mi NW 4.6 mph - N/A   Clear
9:55 PM 33.4 °F 30.4 °F 21.9 °F 63% 30.24 in 10.0 mi WNW 3.5 mph - N/A   Clear
10:15 PM 32.7 °F - 21.7 °F 64% 30.23 in 10.0 mi Calm Calm - N/A   Clear
10:35 PM 30.0 °F - 21.4 °F 70% 30.23 in 10.0 mi Calm Calm - N/A   Clear
10:55 PM 31.3 °F 26.6 °F 21.6 °F 67% 30.23 in 10.0 mi NW 4.6 mph - N/A   Clear
11:15 PM 30.7 °F 27.3 °F 21.4 °F 68% 30.22 in 10.0 mi NW 3.5 mph - N/A   Clear
11:35 PM 30.2 °F 26.7 °F 21.2 °F 69% 30.22 in 10.0 mi NW 3.5 mph - N/A   Clear
11:55 PM 29.5 °F - 21.0 °F 71% 30.21 in 10.0 mi Calm Calm - N/A   Clear